KE0BZR Weather Reports


time (UTC)temp
C
wind
direction
speed
KPH
gust
KPH
rain 1hr
cm
rain 24hr
cm
rain mn
cm
humidity
%
barometer
mb
20230325080058 0 290 20.9 35.4 0.00 0.00 0.00 46 1006.3
20230325074557 0 296 14.5 25.7 0.00 0.00 0.00 59 1006.2
20230325073052 0 254 0.0 6.4 0.00 0.00 0.00 83 1006.2
20230325071556 -1 336 6.4 12.9 0.00 0.00 0.00 90 1006.3
20230325070048 -1 346 1.6 9.7 0.00 0.00 0.00 91 1006.5
20230325064546 -1 345 8.0 16.1 0.00 0.00 0.00 90 1006.8
20230325063044 -1 282 3.2 20.9 0.00 0.00 0.00 89 1007.0
20230325061543 -1 277 16.1 37.0 0.00 0.00 0.00 87 1006.9
20230325060046 1 250 19.3 38.6 0.00 0.00 0.00 75 1006.7
20230325054541 2 284 4.8 12.9 0.00 0.00 0.00 61 1006.4
20230325053035 2 304 11.3 17.7 0.00 0.00 0.00 62 1006.1
20230325051540 3 302 1.6 12.9 0.00 0.00 0.00 60 1006.0
20230325050034 3 24 3.2 11.3 0.00 0.00 0.00 59 1005.8
20230325044539 3 113 0.0 12.9 0.00 0.00 0.00 57 1005.7
20230325043033 3 29 9.7 22.5 0.00 0.00 0.00 55 1005.6
20230325041543 4 9 14.5 25.7 0.00 0.00 0.00 50 1005.7
20230325040033 5 92 6.4 17.7 0.00 0.00 0.00 44 1005.7
20230325034553 5 72 3.2 16.1 0.00 0.00 0.00 41 1005.6
20230325033029 5 47 11.3 22.5 0.00 0.00 0.00 41 1005.6
20230325031530 5 59 8.0 25.7 0.00 0.00 0.00 38 1005.7
20230325030028 5 349 17.7 29.0 0.00 0.00 0.00 38 1005.6
20230325024539 6 324 8.0 17.7 0.00 0.00 0.00 31 1005.4
20230325023047 6 325 1.6 9.7 0.00 0.00 0.00 30 1005.4
20230325021529 6 65 0.0 0.0 0.00 0.00 0.00 28 1005.1
20230325020040 6 65 0.0 0.0 0.00 0.00 0.00 29 1005.2
20230325014527 6 65 0.0 0.0 0.00 0.00 0.00 29 1005.2
20230325013025 6 65 0.0 0.0 0.00 0.00 0.00 28 1005.0
20230325011526 7 40 0.0 11.3 0.00 0.00 0.00 28 1005.1
20230325010026 7 34 9.7 17.7 0.00 0.00 0.00 27 1005.2
20230325004522 8 57 1.6 16.1 0.00 0.00 0.00 27 1005.3
20230325003023 8 79 0.0 3.2 0.00 0.00 0.00 27 1005.3
20230325001522 7 115 0.0 3.2 0.00 0.00 0.00 27 1005.4
20230325000022 7 122 1.6 14.5 0.00 0.00 0.00 28 1005.3
20230324234520 7 82 1.6 9.7 0.00 0.00 0.00 28 1005.3
20230324233022 7 101 0.0 4.8 0.00 0.00 0.00 27 1005.4
20230324231519 8 99 0.0 3.2 0.00 0.00 0.00 27 1005.2
20230324230019 7 152 0.0 4.8 0.00 0.00 0.00 27 1005.1
20230324224517 7 132 0.0 11.3 0.00 0.00 0.00 28 1005.2
20230324223018 7 171 3.2 12.9 0.00 0.00 0.00 28 1005.2
20230324221522 7 167 3.2 14.5 0.00 0.00 0.00 28 1005.3
20230324220014 7 161 9.7 17.7 0.00 0.00 0.00 28 1005.5
20230324214513 7 175 8.0 17.7 0.00 0.00 0.00 28 1005.5
20230324213012 8 231 9.7 29.0 0.00 0.00 0.00 27 1005.4
20230324211512 8 120 6.4 27.4 0.00 0.00 0.00 24 1005.5
20230324210011 8 138 0.0 16.1 0.00 0.00 0.00 22 1005.6
20230324204510 8 117 9.7 17.7 0.00 0.03 0.00 24 1005.7
20230324203007 8 101 0.0 14.5 0.00 0.03 0.00 25 1006.1
20230324201505 8 102 4.8 14.5 0.00 0.03 0.00 25 1006.4
20230324200003 8 88 4.8 20.9 0.00 0.03 0.00 27 1006.7
20230324194600 8 355 6.4 19.3 0.00 0.03 0.00 24 1007.0
20230324193057 11 40 0.0 9.7 0.00 0.03 0.00 21 1007.0
20230324191554 10 82 1.6 8.0 0.00 0.03 0.00 23 1007.4
20230324190113 10 323 0.0 0.0 0.00 0.03 0.00 23 1007.8
20230324184552 8 274 0.0 4.8 0.00 0.03 0.00 24 1008.3
20230324183048 8 255 3.2 14.5 0.00 0.03 0.00 26 1008.5
20230324181543 8 9 1.6 9.7 0.00 0.03 0.00 26 1008.8
20230324180041 8 128 0.0 3.2 0.00 0.03 0.00 26 1009.1
20230324174555 8 32 0.0 11.3 0.00 0.03 0.00 27 1009.3
20230324173032 8 46 0.0 4.8 0.00 0.03 0.00 28 1009.6
20230324171529 7 138 0.0 11.3 0.00 0.03 0.00 30 1009.8
20230324170036 7 125 3.2 11.3 0.00 0.03 0.00 30 1010.0
20230324164522 7 194 0.0 4.8 0.00 0.03 0.00 30 1010.1
20230324163032 7 59 0.0 1.6 0.00 0.03 0.00 31 1010.3
20230324161512 6 96 0.0 3.2 0.00 0.03 0.00 34 1010.4
20230324160008 6 159 0.0 0.0 0.00 0.03 0.00 37 1010.6
20230324154511 6 114 0.0 0.0 0.00 0.03 0.00 42 1010.8
20230324153059 5 111 0.0 1.6 0.00 0.03 0.00 46 1010.9
20230324151556 3 126 0.0 0.0 0.00 0.03 0.00 55 1011.1
20230324150050 2 90 0.0 0.0 0.00 0.03 0.00 63 1011.2
20230324144553 1 79 0.0 0.0 0.00 0.05 0.00 67 1011.4
20230324143100 0 78 0.0 0.0 0.00 0.05 0.00 71 1011.5
20230324141537 0 355 0.0 0.0 0.00 0.05 0.00 78 1011.6
20230324140033 -1 336 0.0 0.0 0.00 0.05 0.00 83 1011.9
20230324134530 -2 336 0.0 0.0 0.00 0.05 0.00 85 1011.8
20230324133029 -3 337 0.0 0.0 0.00 0.05 0.00 85 1011.8
20230324131520 -3 337 0.0 0.0 0.00 0.05 0.00 88 1011.8
20230324130021 -3 304 0.0 0.0 0.00 0.05 0.00 88 1011.7
20230324124518 -3 304 0.0 0.0 0.00 0.05 0.00 89 1011.8
20230324123024 -3 304 0.0 0.0 0.00 0.05 0.00 88 1011.9
20230324121516 -3 343 0.0 0.0 0.00 0.05 0.00 88 1011.8
20230324120014 -3 343 0.0 0.0 0.00 0.05 0.00 89 1011.7
20230324114514 -3 343 0.0 0.0 0.00 0.05 0.00 88 1011.7
20230324113011 -2 285 0.0 0.0 0.00 0.05 0.00 89 1011.8
20230324111513 -2 285 0.0 0.0 0.00 0.05 0.00 89 1011.8
20230324110011 -3 295 0.0 0.0 0.00 0.05 0.00 89 1011.8
20230324104510 -2 355 0.0 0.0 0.00 0.05 0.00 88 1011.8
20230324103008 -2 355 0.0 0.0 0.00 0.05 0.00 88 1011.7
20230324101507 -2 333 0.0 0.0 0.00 0.05 0.00 88 1011.6
20230324100006 -2 302 0.0 0.0 0.00 0.05 0.00 88 1011.5
20230324094507 -2 302 0.0 0.0 0.00 0.05 0.00 87 1011.7
20230324093004 -2 302 0.0 0.0 0.00 0.05 0.00 87 1011.7
20230324091620 -2 302 0.0 0.0 0.00 0.05 0.00 85 1011.8
20230324090058 -1 267 0.0 6.4 0.00 0.05 0.00 86 1011.9
20230324084557 -1 282 0.0 0.0 0.00 0.05 0.00 88 1012.1
20230324083059 -1 5 0.0 0.0 0.00 0.05 0.00 89 1012.3
20230324081553 -1 9 0.0 0.0 0.00 0.05 0.00 89 1012.5